Time,TemperatureF,DewpointF,PressureIn,WindDirection,WindDirectionDegrees,WindSpeedMPH,WindSpeedGustMPH,Humidity,HourlyPrecipIn,Conditions,Clouds,dailyrainin,SolarRadiationWatts/m^2,SoftwareType,DateUTC
2013-11-02 00:22:00,26.0,23.0,-100.00,NNW,340,3.0,6.0,88,0.00,,,0.11,1.000000,,2013-11-02 06:22:00,
2013-11-02 00:32:00,26.0,23.0,-100.00,NNW,340,3.0,6.0,88,0.00,,,0.11,1.000000,,2013-11-02 06:32:00,
2013-11-02 00:43:00,26.0,23.0,-100.00,NNW,340,3.0,6.0,88,0.00,,,0.11,1.000000,,2013-11-02 06:43:00,
2013-11-02 00:52:00,26.0,23.0,-100.00,NNW,340,3.0,6.0,88,0.00,,,0.11,1.000000,,2013-11-02 06:52:00,
2013-11-02 01:22:00,25.0,22.0,-100.00,North,353,3.0,5.0,88,0.00,,,-99.99,0.000000,,2013-11-02 07:22:00,
2013-11-02 01:32:00,25.0,22.0,-100.00,North,353,3.0,5.0,88,0.00,,,-99.99,0.000000,,2013-11-02 07:32:00,
2013-11-02 01:42:00,25.0,22.0,-100.00,North,353,3.0,5.0,88,0.00,,,-99.99,0.000000,,2013-11-02 07:42:00,
2013-11-02 01:52:00,25.0,22.0,-100.00,North,353,3.0,5.0,88,0.00,,,-99.99,0.000000,,2013-11-02 07:52:00,
2013-11-02 02:21:00,24.0,21.0,-100.00,NNW,332,3.0,6.0,89,0.00,,,0.11,0.000000,,2013-11-02 08:21:00,
2013-11-02 02:32:00,24.0,21.0,-100.00,NNW,332,3.0,6.0,89,0.00,,,0.11,0.000000,,2013-11-02 08:32:00,
2013-11-02 02:42:00,24.0,21.0,-100.00,NNW,332,3.0,6.0,89,0.00,,,0.11,0.000000,,2013-11-02 08:42:00,
2013-11-02 02:52:00,24.0,21.0,-100.00,NNW,332,3.0,6.0,89,0.00,,,0.11,0.000000,,2013-11-02 08:52:00,
2013-11-02 03:21:00,22.0,20.0,-100.00,WNW,294,0.0,4.0,90,0.00,,,0.11,0.000000,,2013-11-02 09:21:00,
2013-11-02 03:33:00,22.0,20.0,-100.00,WNW,294,0.0,4.0,90,0.00,,,0.11,0.000000,,2013-11-02 09:33:00,
2013-11-02 03:43:00,22.0,20.0,-100.00,WNW,294,0.0,4.0,90,0.00,,,0.11,0.000000,,2013-11-02 09:43:00,
2013-11-02 03:53:00,22.0,20.0,-100.00,WNW,294,0.0,4.0,90,0.00,,,0.11,0.000000,,2013-11-02 09:53:00,
2013-11-02 04:23:00,22.0,19.0,-100.00,North,354,2.0,5.0,89,0.00,,,0.11,0.000000,,2013-11-02 10:23:00,
2013-11-02 04:32:00,22.0,19.0,-100.00,North,354,2.0,5.0,89,0.00,,,0.11,0.000000,,2013-11-02 10:32:00,
2013-11-02 04:42:00,22.0,19.0,-100.00,North,354,2.0,5.0,89,0.00,,,0.11,0.000000,,2013-11-02 10:42:00,
2013-11-02 04:52:00,22.0,19.0,-100.00,North,354,2.0,5.0,89,0.00,,,0.11,0.000000,,2013-11-02 10:52:00,
2013-11-02 05:22:00,21.0,19.0,-100.00,NW,306,1.0,3.0,90,0.00,,,0.11,1.000000,,2013-11-02 11:22:00,
2013-11-02 05:33:00,21.0,19.0,-100.00,NW,306,1.0,3.0,90,0.00,,,0.11,1.000000,,2013-11-02 11:33:00,
2013-11-02 05:42:00,21.0,19.0,-100.00,NW,306,1.0,3.0,90,0.00,,,0.11,1.000000,,2013-11-02 11:42:00,
2013-11-02 05:52:00,21.0,19.0,-100.00,NW,306,1.0,3.0,90,0.00,,,0.11,1.000000,,2013-11-02 11:52:00,
2013-11-02 06:21:00,22.0,20.0,-100.00,NNE,23,1.0,4.0,91,0.00,,,0.11,0.000000,,2013-11-02 12:21:00,
2013-11-02 06:32:00,22.0,20.0,-100.00,NNE,23,1.0,4.0,91,0.00,,,0.11,0.000000,,2013-11-02 12:32:00,
2013-11-02 06:42:00,22.0,20.0,-100.00,NNE,23,1.0,4.0,91,0.00,,,0.11,0.000000,,2013-11-02 12:42:00,
2013-11-02 06:52:00,22.0,20.0,-100.00,NNE,23,1.0,4.0,91,0.00,,,0.11,0.000000,,2013-11-02 12:52:00,
2013-11-02 07:22:00,21.0,19.0,-100.00,NNW,340,0.0,3.0,91,0.00,,,0.11,0.000000,,2013-11-02 13:22:00,
2013-11-02 07:32:00,21.0,19.0,-100.00,NNW,340,0.0,3.0,91,0.00,,,0.11,0.000000,,2013-11-02 13:32:00,
2013-11-02 07:42:00,21.0,19.0,-100.00,NNW,340,0.0,3.0,91,0.00,,,0.11,0.000000,,2013-11-02 13:42:00,
2013-11-02 07:52:00,21.0,19.0,-100.00,NNW,340,0.0,3.0,91,0.00,,,0.11,0.000000,,2013-11-02 13:52:00,
2013-11-02 08:21:00,20.0,18.0,-100.00,NNW,343,2.0,3.0,90,0.00,,,0.11,1.000000,,2013-11-02 14:21:00,
2013-11-02 08:32:00,20.0,18.0,-100.00,NNW,343,2.0,3.0,90,0.00,,,0.11,1.000000,,2013-11-02 14:32:00,
2013-11-02 08:42:00,20.0,18.0,-100.00,NNW,343,2.0,3.0,90,0.00,,,0.11,1.000000,,2013-11-02 14:42:00,
2013-11-02 08:52:00,20.0,18.0,-100.00,NNW,343,2.0,3.0,90,0.00,,,0.11,1.000000,,2013-11-02 14:52:00,
2013-11-02 09:22:00,27.0,22.0,-100.00,SSW,202,3.0,4.0,81,0.00,,,0.11,56.000000,,2013-11-02 15:22:00,
2013-11-02 09:33:00,27.0,22.0,-100.00,SSW,202,3.0,4.0,81,0.00,,,0.11,56.000000,,2013-11-02 15:33:00,
2013-11-02 09:43:00,27.0,22.0,-100.00,SSW,202,3.0,4.0,81,0.00,,,0.11,56.000000,,2013-11-02 15:43:00,
2013-11-02 09:53:00,27.0,22.0,-100.00,SSW,202,3.0,4.0,81,0.00,,,0.11,56.000000,,2013-11-02 15:53:00,
2013-11-02 10:23:00,30.0,24.0,-100.00,South,191,5.0,9.0,79,0.00,,,0.11,218.000000,,2013-11-02 16:23:00,
2013-11-02 10:33:00,30.0,24.0,-100.00,South,191,5.0,9.0,79,0.00,,,0.11,218.000000,,2013-11-02 16:33:00,
2013-11-02 10:42:00,30.0,24.0,-100.00,South,191,5.0,9.0,79,0.00,,,0.11,218.000000,,2013-11-02 16:42:00,
2013-11-02 10:54:00,30.0,24.0,-100.00,South,191,5.0,9.0,79,0.00,,,0.11,218.000000,,2013-11-02 16:54:00,
2013-11-02 11:22:00,34.0,27.0,-100.00,South,176,10.0,14.0,75,0.00,,,0.08,291.000000,,2013-11-02 17:22:00,
2013-11-02 11:33:00,34.0,27.0,-100.00,South,176,10.0,14.0,75,0.00,,,0.08,291.000000,,2013-11-02 17:33:00,
2013-11-02 11:43:00,34.0,27.0,-100.00,South,176,10.0,14.0,75,0.00,,,0.08,291.000000,,2013-11-02 17:43:00,
2013-11-02 11:53:00,34.0,27.0,-100.00,South,176,10.0,14.0,75,0.00,,,0.08,291.000000,,2013-11-02 17:53:00,
2013-11-02 12:21:00,40.0,28.0,-100.00,SSE,167,12.0,19.0,62,0.00,,,-99.99,440.000000,,2013-11-02 18:21:00,
2013-11-02 12:32:00,40.0,28.0,-100.00,SSE,167,12.0,19.0,62,0.00,,,-99.99,440.000000,,2013-11-02 18:32:00,
2013-11-02 12:42:00,40.0,28.0,-100.00,SSE,167,12.0,19.0,62,0.00,,,-99.99,440.000000,,2013-11-02 18:42:00,
2013-11-02 12:52:00,40.0,28.0,-100.00,SSE,167,12.0,19.0,62,0.00,,,-99.99,440.000000,,2013-11-02 18:52:00,
2013-11-02 13:21:00,45.0,29.0,-100.00,SSW,203,17.0,26.0,54,0.00,,,0.00,487.000000,,2013-11-02 19:21:00,
2013-11-02 13:32:00,45.0,29.0,-100.00,SSW,203,17.0,26.0,54,0.00,,,0.00,487.000000,,2013-11-02 19:32:00,
2013-11-02 13:42:00,45.0,29.0,-100.00,SSW,203,17.0,26.0,54,0.00,,,0.00,487.000000,,2013-11-02 19:42:00,
2013-11-02 13:52:00,45.0,29.0,-100.00,SSW,203,17.0,26.0,54,0.00,,,0.00,487.000000,,2013-11-02 19:52:00,
2013-11-02 14:22:00,47.0,28.0,-100.00,SSW,204,19.0,30.0,47,0.00,,,-99.99,535.000000,,2013-11-02 20:22:00,
2013-11-02 14:32:00,47.0,28.0,-100.00,SSW,204,19.0,30.0,47,0.00,,,-99.99,535.000000,,2013-11-02 20:32:00,
2013-11-02 14:42:00,47.0,28.0,-100.00,SSW,204,19.0,30.0,47,0.00,,,-99.99,535.000000,,2013-11-02 20:42:00,
2013-11-02 14:53:00,47.0,28.0,-100.00,SSW,204,19.0,30.0,47,0.00,,,-99.99,535.000000,,2013-11-02 20:53:00,
2013-11-02 15:21:00,48.0,27.0,-100.00,SSW,200,20.0,27.0,44,0.00,,,-99.99,487.000000,,2013-11-02 21:21:00,
2013-11-02 15:33:00,48.0,27.0,-100.00,SSW,200,20.0,27.0,44,0.00,,,-99.99,487.000000,,2013-11-02 21:33:00,
2013-11-02 15:43:00,48.0,27.0,-100.00,SSW,200,20.0,27.0,44,0.00,,,-99.99,487.000000,,2013-11-02 21:43:00,
2013-11-02 15:54:00,48.0,27.0,-100.00,SSW,200,20.0,27.0,44,0.00,,,-99.99,487.000000,,2013-11-02 21:54:00,
2013-11-02 16:24:00,49.0,27.0,-100.00,SSW,204,19.0,29.0,43,0.00,,,0.00,390.000000,,2013-11-02 22:24:00,
2013-11-02 16:34:00,49.0,27.0,-100.00,SSW,204,19.0,29.0,43,0.00,,,0.00,390.000000,,2013-11-02 22:34:00,
2013-11-02 16:44:00,49.0,27.0,-100.00,SSW,204,19.0,29.0,43,0.00,,,0.00,390.000000,,2013-11-02 22:44:00,
2013-11-02 16:54:00,49.0,27.0,-100.00,SSW,204,19.0,29.0,43,0.00,,,0.00,390.000000,,2013-11-02 22:54:00,
2013-11-02 17:22:00,48.0,27.0,-100.00,SSW,203,16.0,27.0,44,0.00,,,0.00,240.000000,,2013-11-02 23:22:00,
2013-11-02 17:33:00,48.0,27.0,-100.00,SSW,203,16.0,27.0,44,0.00,,,0.00,240.000000,,2013-11-02 23:33:00,
2013-11-02 17:42:00,48.0,27.0,-100.00,SSW,203,16.0,27.0,44,0.00,,,0.00,240.000000,,2013-11-02 23:42:00,
2013-11-02 17:52:00,48.0,27.0,-100.00,SSW,203,16.0,27.0,44,0.00,,,0.00,240.000000,,2013-11-02 23:52:00,
2013-11-02 18:21:00,42.0,27.0,-100.00,SSW,205,11.0,26.0,54,0.00,,,0.00,67.000000,,2013-11-03 00:21:00,
2013-11-02 18:33:00,42.0,27.0,-100.00,SSW,205,11.0,26.0,54,0.00,,,0.00,67.000000,,2013-11-03 00:33:00,
2013-11-02 18:42:00,42.0,27.0,-100.00,SSW,205,11.0,26.0,54,0.00,,,0.00,67.000000,,2013-11-03 00:42:00,
2013-11-02 18:52:00,42.0,27.0,-100.00,SSW,205,11.0,26.0,54,0.00,,,0.00,67.000000,,2013-11-03 00:52:00,
2013-11-02 19:21:00,39.0,26.0,-100.00,SSW,200,8.0,16.0,59,0.00,,,0.00,3.000000,,2013-11-03 01:21:00,
2013-11-02 19:32:00,39.0,26.0,-100.00,SSW,200,8.0,16.0,59,0.00,,,0.00,3.000000,,2013-11-03 01:32:00,
2013-11-02 19:42:00,39.0,26.0,-100.00,SSW,200,8.0,16.0,59,0.00,,,0.00,3.000000,,2013-11-03 01:42:00,
2013-11-02 19:52:00,39.0,26.0,-100.00,SSW,200,8.0,16.0,59,0.00,,,0.00,3.000000,,2013-11-03 01:52:00,
2013-11-02 20:21:00,37.0,27.0,-100.00,South,177,10.0,12.0,67,0.00,,,0.00,1.000000,,2013-11-03 02:21:00,
2013-11-02 20:32:00,37.0,27.0,-100.00,South,177,10.0,12.0,67,0.00,,,0.00,1.000000,,2013-11-03 02:32:00,
2013-11-02 20:43:00,37.0,27.0,-100.00,South,177,10.0,12.0,67,0.00,,,0.00,1.000000,,2013-11-03 02:43:00,
2013-11-02 20:52:00,37.0,27.0,-100.00,South,177,10.0,12.0,67,0.00,,,0.00,1.000000,,2013-11-03 02:52:00,
2013-11-02 21:22:00,36.0,27.0,-100.00,South,189,8.0,11.0,69,0.00,,,0.00,1.000000,,2013-11-03 03:22:00,
2013-11-02 21:33:00,36.0,27.0,-100.00,South,189,8.0,11.0,69,0.00,,,0.00,1.000000,,2013-11-03 03:33:00,
2013-11-02 21:44:00,36.0,27.0,-100.00,South,189,8.0,11.0,69,0.00,,,0.00,1.000000,,2013-11-03 03:44:00,
2013-11-02 21:54:00,36.0,27.0,-100.00,South,189,8.0,11.0,69,0.00,,,0.00,1.000000,,2013-11-03 03:54:00,
2013-11-02 22:23:00,37.0,27.0,-100.00,SSW,193,8.0,12.0,68,0.00,,,0.00,1.000000,,2013-11-03 04:23:00,
2013-11-02 22:34:00,37.0,27.0,-100.00,SSW,193,8.0,12.0,68,0.00,,,0.00,1.000000,,2013-11-03 04:34:00,
2013-11-02 22:44:00,37.0,27.0,-100.00,SSW,193,8.0,12.0,68,0.00,,,0.00,1.000000,,2013-11-03 04:44:00,
2013-11-02 22:52:00,37.0,27.0,-100.00,SSW,193,8.0,12.0,68,0.00,,,0.00,1.000000,,2013-11-03 04:52:00,
2013-11-02 23:23:00,37.0,26.0,-100.00,South,190,8.0,15.0,64,0.00,,,0.00,1.000000,,2013-11-03 05:23:00,
2013-11-02 23:34:00,37.0,26.0,-100.00,South,190,8.0,15.0,64,0.00,,,0.00,1.000000,,2013-11-03 05:34:00,
2013-11-02 23:43:00,37.0,26.0,-100.00,South,190,8.0,15.0,64,0.00,,,0.00,1.000000,,2013-11-03 05:43:00,
2013-11-02 23:53:00,37.0,26.0,-100.00,South,190,8.0,15.0,64,0.00,,,0.00,1.000000,,2013-11-03 05:53:00,